Weather History for KIML - January, 2012

Change the Weather History Date:

Tuesday, January 17, 2012

  Actual Average Record
Temperature  
Mean Temperature 12 °F 28 °F  
Max Temperature 26 °F 41 °F 67 °F (1923)
Min Temperature -2 °F 16 °F -27 °F (1930)
Degree Days  
Heating Degree Days 53 37  
Month to date heating degree days 532 629  
Cooling Degree Days 0 0  
Month to date cooling degree days 0 0  
Year to date cooling degree days 0 0  
Moisture  
Dew Point 5 °F    
Average Humidity 71    
Maximum Humidity 87    
Minimum Humidity 55    
Precipitation  
Precipitation T in 0.01 in 0.39 in (1930)
Sea Level Pressure  
Sea Level Pressure 30.33 in    
Wind  
Wind Speed 10 mph (WSW)    
Max Wind Speed 17 mph    
Max Gust Speed 21 mph    
Visibility 10 miles    
Events      
T = Trace of Precipitation, MM = Missing Value Source: NWS Daily Summary

Daily Weather History Graph

Daily Weather History Graph

Search for Another Location

Airport or City:

Trip Planner

Search our weather history database for the weather conditions in past years. The results will help you decide how hot, cold, wet, or windy it might be!

Date:

Astronomy

Jan. 17, 2012 Rise Set
Actual Time 7:07 AM MST 4:46 PM MST
Civil Twilight 6:37 AM MST 5:16 PM MST
Nautical Twilight 6:03 AM MST 5:49 PM MST
Astronomical Twilight 5:31 AM MST 6:22 PM MST
Moon 1:28 AM MST (1/17) 11:40 AM MST (1/17)
Length of Visible Light 10h 38m
Length of Day
9h 38m
Waning Crescent, 34% of the Moon is Illuminated
Jan 17
Waning Crescent
Jan 23
New
Jan 30
First Quarter
Feb 7
Full
Feb 14
Last Quarter

Hourly Weather History & Observations

Time (MST) Temp. Windchill Dew Point Humidity Pressure Visibility Wind Dir Wind Speed Gust Speed Precip Events Conditions
12:53 AM 9.0 °F -7.3 °F 3.9 °F 80% 30.25 in 10.0 mi NW 13.8 mph - 0.00 in   Clear
1:53 AM 7.0 °F -8.3 °F 1.9 °F 80% 30.27 in 10.0 mi NW 11.5 mph - N/A   Clear
2:53 AM 6.1 °F -9.5 °F 1.0 °F 80% 30.30 in 10.0 mi NW 11.5 mph - N/A   Clear
3:53 AM 5.0 °F -11.6 °F -0.0 °F 80% 30.32 in 10.0 mi NW 12.7 mph - N/A   Clear
4:53 AM 3.0 °F -12.5 °F -0.9 °F 84% 30.36 in 10.0 mi NW 10.4 mph - N/A   Clear
5:53 AM 1.9 °F -11.8 °F -2.9 °F 80% 30.38 in 10.0 mi NW 8.1 mph - N/A   Clear
6:53 AM 1.0 °F -12.9 °F -4.0 °F 79% 30.41 in 10.0 mi WNW 8.1 mph - N/A   Clear
7:53 AM -0.9 °F - -6.0 °F 79% 30.45 in 10.0 mi Calm Calm - N/A   Clear
8:53 AM 3.9 °F -8.2 °F -0.9 °F 80% 30.46 in 10.0 mi West 6.9 mph - N/A   Clear
9:53 AM 10.9 °F 2.9 °F 5.0 °F 77% 30.44 in 10.0 mi SW 4.6 mph - N/A   Clear
10:53 AM 17.1 °F 6.6 °F 8.1 °F 68% 30.43 in 10.0 mi WSW 8.1 mph - N/A   Clear
11:53 AM 19.0 °F 9.0 °F 9.0 °F 65% 30.40 in 10.0 mi SW 8.1 mph - N/A   Clear
12:53 PM 21.9 °F 10.4 °F 10.9 °F 63% 30.35 in 10.0 mi SW 11.5 mph - N/A   Clear
1:53 PM 23.0 °F 12.4 °F 10.0 °F 58% 30.35 in 10.0 mi SSW 10.4 mph - N/A   Clear
2:53 PM 25.0 °F 13.6 °F 10.9 °F 55% 30.33 in 10.0 mi SSW 12.7 mph - N/A   Clear
3:53 PM 25.0 °F 15.5 °F 10.0 °F 53% 30.33 in 10.0 mi SSW 9.2 mph - N/A   Clear
4:53 PM 19.4 °F 11.5 °F 8.6 °F 63% 30.16 in 10.0 mi South 5.8 mph - N/A   Clear
5:53 PM 19.0 °F 6.1 °F 8.1 °F 62% 30.32 in 10.0 mi SSW 12.7 mph - N/A   Clear
6:53 PM 18.0 °F 4.8 °F 8.1 °F 65% 30.32 in 10.0 mi SSW 12.7 mph - N/A   Clear
7:53 PM 18.0 °F 5.4 °F 6.1 °F 60% 30.31 in 10.0 mi SSW 11.5 mph - N/A   Clear
8:53 PM 19.0 °F 5.6 °F 8.1 °F 62% 30.27 in 10.0 mi SSW 13.8 mph - N/A   Clear
9:53 PM 16.0 °F 1.7 °F 8.1 °F 71% 30.23 in 10.0 mi SSW 13.8 mph - N/A   Clear
10:53 PM 12.9 °F 3.8 °F 7.0 °F 77% 30.21 in 10.0 mi SW 5.8 mph - N/A   Clear
11:53 PM 12.9 °F -0.2 °F 7.0 °F 77% 30.18 in 10.0 mi SW 10.4 mph - N/A   Clear